Wind_Speed
18 19 18 19 21 21 19 18 20 22 23 26 27 27 28 28 30 28 23 19 19 23 26 23 25 28 30 34 38 41 43 44 44 44 43 43 43 44 44 43 42 42 41 39 35 31 30 28 26 26 26 26 26 25 26 27 28 32 39 45 48 47 46 45 44 42 39 37 38 38 37 37 36 36 36 36 37 39 40 40 39 40 41 40 39 38
16 19 20 19 19 20 21 21 21 21 20 22 24 27 29 28 29 29 21 18 23 30 35 33 35 39 38 40 42 43 44 44 44 43 43 44 43 43 42 41 40 39 38 35 31 28 26 25 24 24 24 24 24 24 24 25 26 27 31 37 44 48 47 45 45 44 40 37 38 39 39 40 38 34 32 32 33 37 40 40 39 38 39 40 39 37
15 20 22 20 21 23 22 19 19 21 22 24 26 26 28 28 30 32 27 27 32 37 41 41 41 43 40 39 40 40 41 41 41 41 42 42 41 39 38 37 36 35 33 30 27 24 22 21 21 21 21 21 21 22 22 22 23 25 26 29 35 44 47 45 43 43 42 39 37 38 40 40 40 37 34 31 30 34 39 41 40 39 39 39 40 39
19 20 21 21 24 24 20 19 22 25 26 25 26 25 29 31 32 36 38 38 38 38 42 43 41 40 36 34 35 36 38 40 40 40 40 39 38 35 33 32 31 30 28 25 23 20 19 18 18 18 17 17 17 17 18 18 19 19 21 23 27 35 43 46 43 41 42 43 41 38 36 37 38 39 39 37 34 34 39 41 42 41 39 40 39 39
20 19 20 22 23 21 21 24 27 31 31 30 27 27 33 35 34 37 40 42 44 44 43 36 32 33 29 26 31 34 36 39 39 38 38 36 34 30 29 28 26 25 23 21 19 18 17 16 15 15 14 14 13 14 14 14 14 13 13 14 18 23 32 41 44 43 40 41 43 42 39 37 37 37 39 41 40 38 39 42 44 43 40 39 38 39
20 20 21 23 22 19 22 26 27 31 36 36 33 32 35 36 37 40 40 41 41 42 42 30 18 18 19 20 27 31 33 36 36 34 34 31 27 25 24 23 22 20 19 17 16 15 14 13 13 13 12 12 11 11 11 11 10 10 9 8 9 12 17 24 34 41 44 43 43 44 42 40 37 36 36 39 41 41 41 42 44 46 44 42 39 38
22 20 19 22 19 18 24 27 27 32 37 37 37 37 38 38 39 41 40 37 32 33 38 33 20 14 19 25 28 30 30 33 32 29 28 25 21 19 19 18 17 16 14 13 12 11 11 11 10 10 10 11 11 11 10 10 10 9 9 8 7 7 8 10 15 23 32 40 44 45 44 41 36 34 33 34 37 39 41 43 44 45 47 45 43 41
23 18 16 16 16 20 27 28 28 33 35 37 40 40 41 41 41 41 39 34 33 34 36 39 31 21 22 25 24 27 28 26 25 23 21 18 16 14 14 13 13 12 11 10 9 8 8 8 9 9 9 10 10 11 11 11 12 12 11 11 10 10 9 8 8 9 13 20 30 38 44 44 39 33 33 38 43 42 41 41 42 45 47 47 47 46
21 17 14 13 19 25 24 26 30 33 35 39 42 40 41 42 41 40 36 33 35 30 30 40 34 16 9 9 12 19 21 18 16 16 14 12 11 11 9 8 8 8 8 7 7 7 7 7 8 8 9 10 11 12 12 13 13 14 14 14 14 14 13 13 12 11 10 10 12 20 30 41 44 40 35 36 39 42 42 41 39 42 45 47 48 49
20 15 13 15 24 25 21 29 35 33 35 40 41 40 42 40 36 34 31 35 34 18 22 39 33 13 1 6 6 8 10 11 10 9 9 7 7 7 6 4 5 5 7 7 7 7 7 8 9 9 10 11 12 13 14 16 16 17 17 17 17 17 17 17 17 16 15 14 12 12 15 23 34 41 41 39 35 34 36 39 41 42 45 48 50 50
18 13 15 23 25 20 25 37 37 32 35 39 41 43 43 38 33 30 29 30 21 8 20 33 27 15 3 9 5 1 2 7 7 5 7 6 7 7 5 5 6 8 9 10 11 11 11 12 12 13 13 13 14 14 16 17 18 20 20 21 22 22 21 21 21 21 21 20 19 18 17 17 19 25 32 39 41 39 36 36 37 37 38 43 49 52
17 10 16 29 25 22 34 40 37 35 36 38 41 41 36 31 29 25 23 17 7 5 18 22 23 18 3 8 8 7 6 3 2 1 4 5 6 7 7 9 11 12 14 15 17 18 19 20 20 21 22 22 21 22 22 21 21 22 22 23 24 25 26 26 25 25 25 25 25 25 24 24 23 22 23 26 33 38 40 40 40 39 36 37 40 47
18 10 17 29 28 30 38 40 40 39 38 38 37 36 26 16 17 14 11 8 6 12 20 24 30 18 6 9 6 7 8 6 6 4 4 6 9 10 13 16 18 20 22 24 26 27 29 30 31 32 33 33 33 33 32 32 31 30 29 27 26 25 26 27 28 29 29 28 28 28 28 28 28 29 28 27 27 29 32 35 39 41 42 41 39 40
25 18 23 32 33 35 37 37 40 40 40 36 34 35 24 9 9 9 8 9 8 17 29 34 32 11 11 9 5 5 4 4 3 4 9 14 17 19 21 23 26 30 32 34 35 37 39 40 40 41 42 42 42 42 41 40 39 38 37 35 33 31 28 26 25 27 29 30 31 30 30 29 30 31 32 32 32 32 31 31 32 35 38 40 40 40
22 17 29 34 33 38 37 30 30 32 31 29 29 30 25 18 15 10 9 10 10 20 31 28 17 5 6 5 3 2 4 6 9 12 16 20 22 25 29 33 36 39 41 42 42 43 43 44 45 45 46 47 48 49 49 48 48 46 45 43 41 40 38 34 29 25 24 25 28 29 30 30 30 30 32 33 34 35 36 36 35 35 35 36 37 39
20 18 29 33 30 35 34 27 25 26 23 24 29 27 24 27 26 17 18 22 19 18 17 10 5 4 2 3 4 8 9 10 13 15 16 21 26 31 37 40 42 43 44 44 43 44 44 44 45 45 47 50 52 54 55 55 56 55 54 52 49 47 46 44 42 37 30 25 24 24 26 28 29 29 30 31 33 34 35 37 38 39 38 38 38 38
25 26 31 35 35 34 31 29 25 21 22 25 28 27 28 33 29 21 22 28 24 13 8 9 5 1 1 3 7 9 9 11 15 19 22 27 33 38 40 42 43 42 43 42 43 43 44 44 45 46 47 50 52 54 57 59 59 59 60 59 58 56 53 51 50 49 45 39 33 28 26 27 28 28 29 29 31 32 33 34 37 39 40 40 41 41
23 30 32 35 38 35 32 31 26 20 25 29 28 31 34 33 28 21 14 15 14 7 7 15 14 7 4 6 9 10 12 17 20 25 30 34 39 40 40 41 41 41 42 41 42 42 43 44 45 46 48 49 50 54 57 57 55 55 57 58 60 61 60 59 56 55 54 52 48 42 37 33 31 31 31 30 31 32 32 33 33 35 38 41 42 43
18 23 30 35 35 35 34 33 32 30 29 31 29 33 33 22 19 22 14 9 9 6 6 13 19 14 7 9 10 12 16 19 23 30 35 38 41 40 39 39 37 38 38 38 39 41 42 44 44 46 48 50 53 55 56 52 47 47 49 52 56 58 60 61 61 59 58 57 56 54 50 46 41 38 36 36 35 35 34 34 34 34 35 37 40 43
17 11 22 33 33 32 33 32 34 35 33 33 31 33 32 20 15 22 20 11 8 7 7 10 14 10 7 9 12 14 17 22 29 37 41 42 42 39 38 37 36 36 37 37 39 40 41 42 43 45 48 52 55 55 53 48 43 42 44 46 49 52 54 56 57 57 57 56 56 56 56 55 52 48 45 43 42 41 40 39 38 38 37 37 38 40
20 7 16 32 35 30 31 28 26 30 32 35 33 30 30 25 21 24 22 16 12 8 6 6 9 10 9 10 16 20 23 30 38 43 44 43 41 37 35 35 37 38 39 40 41 42 43 44 45 49 52 54 53 50 47 43 41 41 41 43 44 46 49 50 51 52 52 52 53 53 54 55 56 56 54 51 49 48 47 45 45 44 42 41 40 39
21 12 17 31 34 29 29 24 19 23 27 29 28 25 23 24 23 17 12 16 18 13 10 8 8 11 13 14 21 27 29 36 42 43 43 42 39 38 37 37 40 42 43 44 45 46 49 50 53 55 55 52 48 43 40 39 39 40 40 42 43 44 46 47 47 48 48 49 50 51 51 51 53 55 56 56 55 54 52 51 50 50 48 46 45 43
15 11 20 29 28 26 25 20 17 21 24 24 22 21 21 22 23 16 9 15 19 16 16 14 7 9 18 22 27 30 32 38 42 41 41 41 40 41 42 44 45 47 47 47 48 51 53 54 55 55 53 49 43 40 38 38 39 40 42 43 44 45 45 45 46 46 45 45 46 47 47 47 48 50 52 54 56 56 56 55 55 54 53 51 49 48
13 9 21 29 29 31 30 24 24 24 24 25 24 22 22 24 27 24 18 18 17 14 13 9 5 16 28 30 30 33 37 41 41 40 38 38 42 44 45 48 49 49 49 49 51 54 55 55 54 52 50 46 43 41 41 41 43 44 46 46 46 45 44 44 44 42 42 42 43 44 44 44 45 46 48 50 51 54 55 56 56 56 56 56 53 51
17 13 18 20 21 28 29 28 33 34 30 28 26 24 27 30 31 29 25 20 14 13 13 7 9 26 36 32 33 39 42 43 41 38 37 39 43 44 45 48 48 48 49 52 55 56 54 53 52 49 46 44 44 45 45 47 47 47 48 48 47 46 45 43 41 40 40 41 42 43 43 43 43 43 44 46 48 49 51 54 55 55 55 56 56 54
20 16 14 10 7 11 15 18 26 33 31 27 26 28 31 33 30 26 22 15 10 15 23 17 19 34 42 36 39 46 45 43 41 40 42 42 41 42 44 46 46 48 52 55 55 53 51 50 47 45 44 45 46 48 49 51 50 48 47 47 47 47 45 44 43 42 43 43 43 44 43 43 44 44 45 46 48 50 51 52 53 54 54 55 56 56
22 18 14 13 12 15 20 22 22 24 27 27 28 30 32 30 29 24 19 16 15 18 27 29 28 36 42 42 47 49 45 43 44 45 45 41 40 42 44 45 48 51 54 53 50 47 46 45 44 44 45 47 48 50 51 51 50 48 47 47 46 46 46 46 46 47 48 47 47 46 45 45 46 47 48 49 50 53 54 54 54 55 56 55 55 55
25 23 21 23 25 23 22 21 17 18 23 27 28 31 31 30 29 25 21 23 21 15 23 35 34 34 40 47 49 47 44 45 47 47 44 43 43 44 45 48 52 53 50 47 44 43 43 44 45 47 48 50 52 53 52 51 49 48 48 47 47 46 46 47 49 50 50 50 50 49 49 49 50 51 52 52 55 57 57 56 55 56 57 58 57 55
25 25 28 31 32 29 21 17 16 19 24 26 26 29 31 29 27 25 27 30 25 17 25 36 36 36 44 49 47 44 44 46 47 46 45 44 45 46 50 54 53 48 45 42 41 42 43 45 48 49 51 52 53 53 52 50 49 49 49 49 49 48 49 49 50 52 52 52 53 53 54 55 56 57 58 59 62 63 61 59 57 57 57 59 59 57
25 27 31 33 35 32 24 18 18 21 27 27 23 25 28 27 24 26 32 34 28 26 31 34 37 43 48 46 44 45 46 47 47 46 45 46 48 52 55 53 48 44 41 40 41 43 45 49 51 51 51 51 50 50 50 50 49 50 50 51 51 52 52 53 54 55 57 57 58 59 60 61 63 64 66 67 68 67 65 62 60 58 57 58 59 58
26 28 31 34 37 33 28 24 23 24 28 27 21 20 24 25 26 29 34 35 32 32 35 35 41 49 49 45 45 47 46 45 44 45 47 50 52 54 53 49 44 42 41 41 43 46 49 52 51 50 49 48 48 49 51 52 52 52 53 54 54 56 56 57 58 59 60 61 61 62 63 65 66 68 68 68 67 64 62 60 58 56 55 56 57 56
27 28 31 34 34 33 32 28 28 32 29 20 16 21 26 28 30 31 33 33 31 32 37 38 42 48 50 49 50 48 44 42 43 47 51 51 51 51 49 44 41 41 42 44 47 51 53 53 50 47 46 47 49 51 52 54 55 55 55 56 57 59 59 58 57 56 57 57 58 59 60 61 62 63 62 61 59 56 54 53 51 50 51 52 52 52
25 26 32 31 28 33 34 27 29 32 22 13 18 27 30 30 31 33 33 32 30 32 37 41 45 48 48 48 48 45 43 45 49 52 51 49 50 49 45 40 39 42 46 48 52 55 55 54 51 47 46 48 50 52 53 55 56 56 57 57 57 57 57 55 53 51 51 52 53 54 55 55 55 56 55 54 53 52 50 48 46 45 46 47 48 48
23 25 30 27 23 29 32 30 28 19 10 17 28 30 29 30 30 32 34 35 35 36 40 44 48 48 45 42 42 42 45 50 53 51 48 49 49 44 39 38 40 44 48 52 55 57 56 55 52 48 46 48 50 52 53 55 56 56 56 55 54 53 52 51 49 48 48 48 48 48 49 50 50 50 50 49 48 47 46 44 42 41 42 44 44 45
24 26 29 28 24 26 29 28 19 9 14 28 31 26 25 25 26 32 39 40 40 42 45 47 46 42 38 37 39 44 50 52 51 48 48 49 45 39 37 40 43 47 52 55 57 57 55 52 49 47 47 48 50 52 53 53 54 53 52 51 50 50 49 48 46 45 45 44 44 44 44 44 45 44 44 44 43 42 41 41 40 40 41 42 42 42
25 26 29 30 23 22 24 17 9 16 29 31 22 19 20 21 25 34 44 47 46 46 47 43 37 33 35 40 46 50 52 51 50 48 48 47 43 39 39 43 47 51 54 57 57 55 51 49 47 47 48 49 50 50 50 50 50 49 49 48 48 47 47 45 44 43 42 42 41 40 39 39 39 38 38 38 38 38 38 38 39 40 41 41 41 40
25 26 29 27 17 15 21 20 19 26 29 21 16 19 21 26 30 32 40 50 49 41 36 32 33 39 44 48 51 50 50 52 52 50 48 46 44 43 44 47 50 53 55 55 54 50 47 46 46 46 47 47 47 47 47 48 47 47 47 46 45 44 43 43 42 41 40 39 37 36 35 34 34 35 35 35 36 36 36 36 37 38 39 40 39 38
25 26 27 23 16 15 18 19 16 15 14 16 21 25 26 29 31 32 43 51 41 29 30 35 42 49 51 50 51 49 50 53 55 53 50 48 47 46 48 49 51 52 53 51 49 47 45 45 45 45 45 45 45 45 46 46 46 46 45 44 43 42 41 39 39 38 37 36 34 33 32 32 32 33 33 33 33 33 34 34 34 34 34 34 34 33
24 26 24 20 18 18 16 12 6 7 12 19 25 28 29 31 35 38 40 39 32 30 37 44 47 49 49 48 49 49 49 52 56 55 51 49 48 47 48 49 50 50 49 48 46 45 45 45 45 45 45 44 44 44 44 45 45 44 43 42 41 40 38 37 36 36 35 34 32 31 30 30 31 31 30 30 30 30 30 30 29 27 26 26 27 26
24 25 23 19 19 20 18 14 13 14 19 22 25 30 33 35 37 29 21 27 39 43 44 46 47 47 46 47 48 48 47 50 55 55 51 48 48 47 47 48 48 48 48 47 45 45 44 45 45 45 44 44 43 43 43 43 43 42 41 40 39 38 37 36 35 34 33 32 31 30 29 29 29 29 28 28 28 28 27 27 26 24 22 21 22 22
26 24 22 22 23 23 18 18 22 25 24 24 28 35 37 36 32 21 20 35 48 47 45 45 45 45 46 47 49 50 49 49 51 51 49 48 48 48 48 47 47 46 46 46 45 45 45 45 44 43 43 42 42 41 41 42 42 41 40 39 38 38 37 35 34 32 31 30 30 29 28 28 28 28 27 27 27 27 27 26 25 24 22 21 20 20
25 24 24 24 25 24 20 21 25 25 27 30 34 36 35 32 30 30 37 46 46 45 46 45 43 45 48 48 49 51 51 50 48 47 47 47 48 49 49 48 47 46 45 44 44 45 45 44 43 43 42 41 40 40 40 41 41 41 39 38 37 37 36 35 34 32 30 29 29 28 28 28 27 28 27 26 27 26 26 25 25 23 22 21 20 19
21 20 23 25 25 22 19 16 14 18 28 35 36 35 34 34 35 40 45 46 44 45 46 45 45 47 48 49 50 51 50 49 46 45 46 46 47 48 48 48 47 46 45 45 45 44 45 45 43 42 41 40 40 39 39 40 40 40 38 37 36 36 35 34 33 31 30 29 28 28 28 28 27 27 26 26 26 25 24 24 23 22 22 21 19 18
19 18 21 24 21 18 18 16 17 24 33 35 35 36 36 37 38 40 43 45 45 45 44 46 48 47 47 49 51 50 48 47 45 45 46 46 46 47 48 48 47 46 46 45 45 45 45 45 44 42 41 40 39 38 38 38 39 39 38 37 35 35 34 33 31 30 29 28 27 27 27 27 27 27 26 25 25 24 23 22 21 21 21 20 19 18
23 24 25 27 25 23 26 29 32 36 37 36 36 37 37 37 37 38 41 44 45 44 45 47 48 46 47 49 49 49 48 46 45 46 46 47 47 47 47 47 46 45 46 45 45 45 45 45 44 43 41 39 37 37 37 37 37 38 37 36 35 34 33 32 31 29 28 27 27 27 27 26 26 26 26 25 25 24 23 22 20 20 19 19 19 18
26 27 28 30 31 32 35 37 37 39 41 40 38 37 37 37 39 40 42 44 45 45 45 45 46 47 47 47 47 48 47 46 47 47 47 47 48 48 47 47 45 45 45 45 45 45 45 45 44 43 41 39 37 36 36 35 35 36 35 35 34 33 32 31 30 28 27 26 26 26 26 25 25 25 25 25 24 24 23 22 20 19 19 18 18 17
26 27 30 31 31 34 37 39 38 40 42 41 38 38 38 39 40 42 44 45 45 45 45 44 45 46 45 45 46 46 46 46 47 48 48 48 49 48 48 46 45 45 45 45 45 45 45 45 44 43 41 39 37 37 36 34 33 33 34 33 33 32 31 30 29 28 27 26 25 25 25 24 24 24 24 24 24 23 22 22 21 20 19 18 17 16
25 28 31 32 33 36 40 40 39 40 42 40 38 39 40 42 43 44 44 45 45 46 46 45 45 45 44 44 44 44 46 46 46 47 49 49 49 49 48 46 46 46 46 46 46 45 44 44 43 43 41 39 37 37 36 35 33 32 32 32 31 31 31 29 28 28 26 26 26 25 25 24 24 23 23 22 22 22 22 22 21 20 19 19 18 16
25 29 29 32 36 40 40 39 39 43 45 42 39 40 42 44 45 45 45 46 46 46 47 46 46 45 44 43 43 44 46 46 46 48 49 49 49 49 48 47 47 47 47 46 46 45 44 44 43 42 41 39 38 36 35 35 33 32 31 31 30 30 30 29 28 27 26 26 26 25 25 24 24 23 23 22 21 21 20 21 21 21 20 19 18 17
27 29 28 31 37 39 39 38 40 44 46 44 41 41 43 43 44 45 46 46 46 47 47 47 46 45 44 43 43 44 45 47 47 48 49 49 49 48 48 48 48 48 47 46 45 45 44 42 41 41 40 38 37 36 35 34 33 31 31 30 29 29 29 29 28 27 27 26 26 25 24 24 23 23 23 22 21 20 18 18 20 22 21 20 18 18
29 31 30 32 37 40 40 39 39 43 46 45 42 43 44 43 44 46 46 46 47 46 46 46 47 46 45 44 43 43 45 47 48 48 49 50 49 48 48 48 48 49 48 46 46 45 43 42 40 39 38 37 36 35 34 33 32 32 31 30 29 29 28 29 29 28 27 27 26 25 24 24 23 23 22 22 22 20 18 16 16 19 21 21 19 18
Wind_Direction
4 11 15 5 358 352 342 329 316 311 308 309 313 319 324 325 324 331 338 339 335 321 311 305 298 295 296 293 289 286 286 285 284 283 280 277 276 276 277 279 281 283 286 287 285 281 278 277 276 275 273 271 270 268 264 261 257 251 248 246 243 242 242 240 238 238 241 243 243 240 237 242 247 250 251 249 245 242 242 246 253 257 257 260 261 258
13 17 13 2 353 345 337 329 325 327 330 333 337 336 336 337 331 332 336 332 326 316 306 303 300 297 296 293 288 286 285 282 281 279 277 275 273 273 274 276 278 280 282 282 281 277 275 276 278 279 278 277 276 274 272 268 264 258 251 247 243 239 238 239 239 238 237 238 241 240 238 240 244 247 249 250 249 245 243 245 250 255 255 257 261 261
27 16 10 4 354 345 341 340 343 350 354 353 350 344 341 342 333 325 321 317 316 312 306 305 304 301 297 290 285 284 281 278 277 274 272 271 270 269 270 272 274 276 278 277 275 274 275 277 279 281 282 282 283 281 278 273 268 262 255 249 244 240 236 236 238 237 234 234 237 237 237 240 243 243 242 242 243 243 243 244 246 252 254 254 256 258
24 12 10 4 353 349 355 1 1 358 357 355 353 347 339 336 329 320 318 320 317 311 308 309 307 300 293 288 282 277 274 272 269 267 266 266 266 267 267 269 270 271 272 270 270 271 274 277 277 278 279 280 281 281 280 277 272 267 260 253 246 242 238 235 234 235 233 233 234 234 234 236 237 237 238 238 237 237 239 241 243 246 249 251 255 257
18 11 8 1 355 358 8 10 5 357 349 346 349 343 333 330 327 321 320 322 317 310 311 313 307 295 290 292 281 271 268 265 262 262 263 263 264 264 265 266 266 266 265 263 266 268 269 272 274 275 276 275 275 274 274 275 275 273 269 262 253 246 242 239 236 234 234 233 233 234 237 239 239 239 239 238 238 239 239 239 240 242 244 246 250 254
15 11 2 357 359 4 9 11 7 355 342 340 344 339 333 330 326 322 320 320 315 310 313 316 306 293 293 292 278 267 262 259 258 259 260 261 260 259 259 259 258 258 258 259 261 263 266 269 272 275 276 277 275 274 275 276 278 279 278 276 268 258 252 247 242 239 237 236 235 236 238 241 243 242 239 235 235 239 242 242 240 239 240 242 246 249
10 8 357 355 3 3 4 6 360 349 339 338 342 337 333 329 323 320 317 314 305 301 307 304 290 283 287 285 277 267 258 253 253 254 254 256 254 251 249 249 250 250 251 255 259 263 268 272 275 280 281 284 286 286 289 288 288 288 285 284 280 274 268 261 255 248 243 241 239 239 238 240 243 242 241 241 240 241 242 243 242 240 240 240 240 242
7 9 1 5 13 1 358 356 349 345 339 337 339 336 332 327 320 316 313 306 298 296 297 291 282 274 277 279 270 258 249 243 245 248 248 249 245 241 241 241 244 247 249 254 259 265 271 278 287 293 296 299 304 305 306 305 301 298 293 292 290 288 285 279 277 273 263 251 245 241 238 238 243 245 246 249 249 247 245 243 241 240 241 240 239 240
14 15 15 26 12 358 355 349 345 342 337 336 338 335 329 324 317 313 310 304 300 295 286 287 286 273 269 269 240 240 240 235 240 246 245 241 236 234 235 242 249 255 263 267 272 279 288 301 311 319 318 317 318 316 315 316 315 312 307 304 302 300 298 296 292 285 284 282 267 252 243 241 244 248 249 249 249 247 246 247 247 245 243 242 241 242
27 32 36 24 3 357 350 345 346 342 337 338 339 333 327 322 317 315 311 300 298 286 268 286 293 279 295 87 165 224 243 240 238 246 252 241 232 237 242 264 286 292 294 297 303 305 307 316 325 332 332 328 328 328 328 328 325 322 319 314 310 307 305 303 301 298 291 288 286 281 267 253 248 249 251 252 253 252 248 248 251 251 248 246 244 244
36 55 37 11 3 360 345 345 349 345 342 341 337 332 329 326 324 321 312 296 287 261 268 289 304 291 286 70 72 58 263 246 239 257 279 264 242 252 277 301 311 317 320 320 322 323 321 322 324 327 328 327 327 328 330 332 330 329 325 320 316 312 309 307 304 303 300 296 291 285 283 278 267 259 255 254 257 260 258 255 256 255 253 250 247 247
43 62 19 7 7 358 348 349 351 349 349 345 339 336 332 330 331 324 312 297 261 265 288 301 323 318 314 67 53 89 117 168 190 4 340 306 272 270 297 314 319 322 326 327 328 329 329 328 327 327 327 326 325 324 323 323 325 328 328 326 323 317 312 309 306 303 302 300 298 294 289 285 280 274 268 262 259 260 261 264 265 262 259 256 251 249
30 38 11 7 7 360 356 353 350 352 353 350 347 346 340 331 333 326 315 311 259 282 304 311 318 325 95 92 68 111 116 118 117 75 28 339 322 316 317 323 329 330 329 329 329 329 329 329 328 327 327 326 324 323 322 321 321 322 322 323 324 323 319 313 309 306 303 301 299 298 296 292 288 282 277 272 267 263 262 264 265 263 262 263 261 256
8 12 8 6 4 3 2 356 351 349 349 353 356 349 344 336 327 324 315 312 285 292 304 306 308 322 104 88 68 113 99 94 88 10 351 337 334 336 337 336 335 334 333 332 332 331 331 330 329 329 327 326 324 322 321 319 319 318 318 318 319 320 320 318 313 308 304 302 300 298 297 294 292 288 284 279 273 269 265 263 262 262 263 266 267 265
358 356 0 4 6 3 3 6 357 343 341 353 350 340 341 343 330 315 306 310 310 310 312 312 316 355 91 87 62 8 329 320 320 324 327 331 336 338 339 338 334 334 334 334 335 335 335 334 332 331 329 327 326 323 321 319 317 316 315 314 315 315 316 316 314 309 303 300 299 298 296 294 291 288 285 282 278 273 268 264 262 260 260 262 265 266
348 341 357 3 8 5 4 10 360 344 348 348 336 335 344 340 330 318 316 322 324 320 327 354 42 52 77 172 238 291 291 294 310 318 321 331 338 336 335 335 335 336 336 336 336 336 336 335 333 333 331 329 328 326 325 323 321 319 316 313 312 311 312 312 312 309 305 299 294 293 292 292 290 286 282 279 278 276 271 266 262 259 258 258 259 261
345 340 357 1 2 10 11 7 1 355 354 344 339 346 338 326 328 330 322 326 330 322 335 11 32 96 137 239 257 269 286 306 324 336 336 336 337 336 335 335 335 335 335 334 334 334 334 334 333 332 332 331 330 328 327 326 324 322 319 317 314 311 310 309 309 308 305 302 296 291 287 287 287 286 282 278 274 273 273 270 266 262 260 258 257 256
347 337 355 1 358 8 13 4 2 359 346 344 349 347 333 321 329 342 328 320 330 313 313 337 333 305 235 248 268 279 311 328 332 336 336 334 335 336 337 336 335 334 334 333 333 333 332 332 332 330 329 328 328 327 326 325 324 322 320 318 316 314 312 310 309 307 305 303 300 296 291 286 283 282 283 282 278 274 272 272 271 268 265 261 259 257
360 334 349 4 2 4 11 5 359 356 346 343 341 334 336 337 337 343 337 311 320 316 308 324 322 306 248 243 277 300 325 334 331 331 333 334 335 336 337 338 337 335 333 331 330 329 328 328 327 326 324 324 323 323 323 323 322 318 316 316 315 314 313 312 311 309 307 304 302 300 297 293 288 282 279 280 280 279 277 275 274 273 271 267 264 261
12 334 337 0 5 2 9 8 354 346 341 339 336 334 341 346 338 337 333 319 316 316 310 312 311 300 258 276 314 333 337 334 332 333 334 335 335 334 335 336 333 330 327 325 324 324 324 324 323 321 320 319 319 318 319 320 317 313 312 312 312 312 312 311 310 309 308 306 303 300 298 296 293 289 283 279 277 277 277 278 278 277 274 272 269 266
9 354 323 350 5 4 7 7 347 335 334 336 339 340 337 333 330 331 329 329 327 312 310 309 304 300 284 299 334 342 337 334 335 335 333 333 332 329 328 327 326 325 322 322 322 322 323 322 320 319 318 317 317 317 318 317 314 311 309 308 309 308 308 309 309 309 307 306 304 301 298 295 293 291 288 284 280 276 275 275 277 278 277 275 273 271
3 356 329 342 355 358 1 4 345 329 330 335 339 336 327 326 334 336 328 328 324 308 297 294 299 306 297 306 327 332 332 332 331 330 329 329 327 322 320 320 320 320 319 320 322 322 323 321 319 318 318 318 319 320 319 316 313 310 307 307 307 306 306 307 308 309 307 306 304 303 300 297 294 291 289 287 285 281 277 275 275 276 277 276 275 274
3 348 338 340 345 350 356 2 350 334 334 342 343 333 323 326 335 338 324 318 317 304 295 295 292 291 296 308 316 319 323 323 321 324 326 325 322 320 318 316 315 316 318 320 321 322 321 319 317 317 317 318 318 318 316 314 311 309 307 307 306 306 307 307 308 309 308 306 304 303 302 300 297 293 291 288 286 284 281 278 276 276 276 275 275 274
14 353 342 341 345 351 354 356 352 347 347 350 343 331 325 327 328 326 320 317 312 300 300 311 283 285 299 309 311 313 316 316 317 322 324 321 319 316 314 313 313 315 319 321 320 319 317 315 315 315 315 316 316 314 313 311 310 308 307 308 308 308 308 307 307 308 307 305 305 305 304 302 301 298 294 292 289 287 285 282 279 277 276 276 275 274
11 2 346 339 341 349 352 352 349 347 349 349 337 324 321 322 321 319 319 318 308 299 311 315 274 293 305 309 310 315 317 317 318 321 320 317 313 311 310 310 312 315 318 319 318 316 314 314 314 315 316 316 315 313 311 310 310 308 307 306 306 307 307 305 304 303 302 302 302 303 303 301 300 298 297 298 297 294 291 287 285 281 278 276 275 274
4 4 2 352 333 333 330 326 328 330 332 333 325 317 317 318 316 316 317 313 299 301 306 295 282 300 309 310 313 319 320 319 319 319 317 314 310 309 309 310 312 314 315 316 315 314 313 313 315 316 316 316 314 313 312 311 311 308 306 305 304 304 304 302 301 299 298 297 297 298 298 297 295 294 296 298 300 299 297 293 290 287 283 278 275 273
3 4 6 351 326 312 306 306 315 321 320 319 317 315 314 314 313 313 312 306 303 303 300 296 294 301 307 312 317 320 320 318 317 317 316 314 311 310 309 310 312 313 313 313 312 312 313 314 315 316 315 313 311 311 311 311 310 307 305 304 303 303 301 300 298 297 296 295 293 291 291 290 290 290 292 293 295 297 297 295 293 291 288 284 278 273
1 358 354 344 336 331 321 317 325 324 315 313 314 313 312 311 309 307 306 309 311 301 295 302 305 300 304 312 317 319 318 315 315 316 315 312 311 309 309 310 312 313 313 313 312 313 314 314 314 314 311 309 308 308 309 309 308 306 303 302 301 301 299 297 296 295 294 292 290 288 287 287 287 287 288 290 292 293 293 292 291 290 289 287 283 277
359 353 348 342 341 343 340 331 329 322 315 315 313 311 309 306 303 303 306 310 309 294 292 302 304 298 304 313 316 316 315 313 314 314 312 309 308 307 309 313 315 316 315 314 313 313 313 312 311 310 308 306 306 306 307 307 306 304 303 302 301 300 298 296 294 293 292 291 289 288 287 287 287 288 289 289 290 290 289 288 287 286 285 284 284 281
353 347 346 342 338 344 349 341 329 321 320 320 314 308 307 303 300 303 307 309 306 298 298 302 301 301 308 314 314 313 312 312 312 312 310 308 308 309 313 316 318 317 315 314 313 312 312 311 310 308 307 307 308 309 309 308 306 304 303 301 300 299 298 296 294 294 292 291 290 289 288 288 288 289 290 290 290 289 287 286 284 283 282 281 281 281
346 344 346 339 334 343 353 342 330 327 323 320 316 312 312 309 305 305 307 308 306 303 305 306 304 307 314 316 312 311 311 310 310 310 310 310 311 314 317 319 318 315 314 313 312 311 312 313 312 312 311 312 312 312 310 309 307 305 303 301 300 298 297 296 295 295 294 292 290 289 288 288 288 289 289 290 290 289 287 285 283 281 279 278 278 278
345 342 343 339 331 339 349 342 333 333 327 318 322 323 318 313 308 306 306 305 303 306 309 308 306 309 315 315 312 310 309 308 309 311 312 313 315 318 320 320 316 313 312 311 311 313 315 316 317 316 314 313 312 310 309 308 307 306 305 303 301 300 299 298 298 295 293 293 292 290 289 288 288 288 289 290 290 289 288 286 283 281 278 277 276 276
341 336 339 340 328 331 345 342 330 332 330 323 329 326 319 314 307 304 304 301 300 305 307 306 307 311 313 312 309 309 309 310 311 313 314 315 318 321 321 317 312 311 311 311 312 315 317 318 318 315 310 308 308 308 308 307 307 307 306 304 303 302 302 301 300 296 293 292 291 290 290 290 289 289 289 289 289 289 288 286 284 281 278 276 275 275
334 331 335 338 324 325 340 339 328 331 335 326 328 324 315 310 305 301 300 299 300 304 306 308 310 313 311 308 306 306 308 310 312 315 317 318 320 321 318 312 309 308 309 311 314 316 317 317 316 313 309 308 308 308 307 307 307 307 306 305 304 304 304 303 302 299 295 293 292 291 290 290 290 289 289 289 288 288 287 286 284 281 277 275 274 274
331 329 331 335 328 323 333 339 338 338 325 322 322 316 307 303 299 299 302 305 308 309 311 312 312 312 309 305 304 305 307 311 313 317 320 321 322 320 314 310 309 308 309 312 314 315 316 315 314 313 312 311 310 309 309 308 307 306 306 306 306 305 305 305 304 302 300 298 296 294 293 292 290 290 290 289 288 287 285 284 282 279 277 275 274 275
330 327 328 332 330 325 330 335 321 313 321 322 315 306 306 302 301 306 311 315 318 315 312 312 310 308 305 305 307 309 312 315 316 319 322 323 322 318 312 309 309 309 310 311 313 314 314 314 313 313 313 312 311 310 310 309 308 308 308 308 307 307 307 306 306 305 303 301 300 298 297 295 294 294 293 291 290 288 285 283 281 279 278 278 277 277
327 324 326 328 328 325 321 311 302 310 322 330 320 315 316 309 309 313 313 314 317 317 314 312 310 309 310 311 313 315 316 316 317 321 324 323 320 316 312 310 309 308 309 311 312 313 314 314 314 313 312 312 312 312 311 311 311 311 310 310 309 308 307 307 306 305 303 303 302 302 301 301 299 299 297 295 294 291 289 286 283 281 280 279 278 276
324 320 322 324 321 319 312 306 310 314 319 328 324 319 317 312 311 312 307 308 318 326 319 314 313 314 316 316 316 317 318 316 317 322 325 322 319 317 315 313 312 310 311 312 313 315 315 315 314 314 314 314 314 314 314 313 313 313 312 312 311 310 309 308 307 305 305 305 305 304 305 304 303 302 301 300 299 297 295 292 289 286 283 281 277 274
318 319 323 323 318 318 311 296 277 264 292 318 323 320 317 314 313 312 307 310 322 325 318 316 316 316 316 316 316 317 316 314 315 320 322 321 320 319 318 317 316 314 313 314 316 317 317 316 316 316 315 315 315 315 315 314 314 314 314 313 312 311 311 309 308 307 307 307 307 307 307 307 306 306 305 305 305 304 302 301 298 295 290 284 280 276
320 324 326 324 318 318 312 295 282 289 306 319 323 323 322 318 316 313 305 314 323 321 319 318 316 314 315 317 317 315 312 310 312 316 319 319 319 320 319 318 318 316 316 317 318 319 318 317 317 317 316 316 316 316 315 314 314 315 316 316 315 314 312 311 310 310 309 309 309 309 309 309 308 308 308 308 308 307 307 305 303 300 295 289 284 280
330 330 327 325 323 321 313 298 297 307 321 327 325 324 323 319 316 307 300 315 321 322 321 318 315 316 319 318 316 314 312 311 312 315 318 319 319 321 321 319 318 318 318 318 319 319 319 318 317 316 316 317 316 316 316 316 316 318 320 319 317 315 314 313 312 311 311 311 311 310 309 309 308 308 308 308 308 308 308 307 305 302 298 293 288 284
331 329 326 326 324 319 310 302 302 313 328 332 326 322 321 318 315 312 314 318 320 320 320 319 318 320 321 318 316 315 314 315 315 316 318 320 321 322 321 320 320 320 320 320 320 320 318 317 317 317 317 317 317 317 317 317 317 319 321 320 319 317 315 314 314 313 313 312 311 310 309 308 307 307 307 307 307 307 307 306 305 303 301 298 293 289
323 321 320 321 322 317 306 297 299 313 325 327 324 322 323 322 319 319 320 321 320 321 322 322 322 322 320 318 318 317 316 317 318 318 319 321 322 322 321 321 321 321 321 322 321 320 319 318 318 318 318 318 318 318 318 317 317 319 320 320 319 317 316 316 315 314 314 313 312 310 308 307 306 306 306 307 307 307 307 306 305 305 304 301 297 293
318 314 312 313 314 306 294 296 314 322 324 327 327 327 327 325 322 320 319 320 324 327 326 324 323 322 319 318 318 318 319 319 319 320 321 322 323 323 322 321 321 321 322 322 321 321 319 318 318 318 318 318 318 318 318 317 316 317 318 319 319 318 317 317 315 315 315 313 312 310 308 307 306 306 307 307 307 307 307 306 306 305 303 301 299 296
319 321 317 312 311 307 307 318 328 330 330 332 332 331 329 326 323 321 319 321 326 329 326 323 323 322 320 318 318 319 320 321 321 323 324 324 324 323 322 321 321 321 321 321 321 321 319 318 318 318 318 318 317 317 317 316 315 315 316 318 318 318 318 318 317 316 316 315 313 310 309 308 307 307 308 308 308 308 307 305 305 304 302 300 298 296
320 319 316 316 318 317 321 331 335 330 332 336 335 332 329 325 323 324 324 326 328 328 325 323 322 321 320 319 319 320 322 323 324 324 324 324 323 322 321 320 320 321 321 320 321 320 319 318 318 317 318 318 318 317 316 315 314 314 314 316 316 317 319 319 319 319 319 317 314 312 311 310 309 308 309 308 308 307 306 305 305 303 301 300 299 298
319 316 317 320 318 314 322 336 336 328 331 339 338 333 330 327 327 328 328 329 329 327 325 323 322 323 322 321 321 322 323 324 324 324 324 323 322 321 320 320 320 321 320 320 320 319 318 317 317 317 318 319 318 317 316 315 314 312 312 314 315 316 318 319 320 322 323 321 318 316 314 313 312 310 309 309 308 307 306 306 306 304 302 300 299 299
315 315 319 321 317 314 324 337 334 325 328 336 337 333 332 330 330 330 329 330 329 327 326 325 325 324 324 324 324 323 323 324 324 323 323 323 322 321 321 321 321 320 320 319 318 317 317 317 317 317 317 318 318 317 315 314 314 312 312 312 313 314 316 317 319 322 324 323 322 320 319 317 315 312 311 310 309 308 307 306 305 304 302 301 300 299
308 314 320 318 317 321 329 335 332 328 332 339 338 334 332 332 331 330 330 330 329 328 328 327 327 325 325 325 326 325 324 325 325 323 322 321 321 321 321 321 320 319 318 317 316 316 316 316 316 316 316 317 317 316 314 314 314 312 311 312 312 312 313 315 317 320 322 322 322 321 321 320 317 314 313 312 310 309 308 307 305 304 302 302 301 299
307 317 322 316 316 323 330 334 332 329 334 340 339 333 332 332 329 329 330 330 328 328 328 328 328 328 326 327 328 328 326 326 326 324 321 320 321 322 322 321 319 317 317 316 315 315 315 315 315 315 315 315 315 315 315 314 314 313 312 312 313 313 313 313 315 317 319 319 320 320 320 320 318 316 314 313 311 309 307 306 305 304 303 301 300 298
311 321 322 316 318 325 331 334 331 328 332 338 337 333 332 332 329 328 330 329 328 329 328 328 329 329 328 329 330 330 328 326 325 323 321 321 323 323 322 320 318 317 316 316 315 314 314 314 315 314 314 314 314 315 315 315 314 313 313 313 314 314 314 313 314 315 317 317 317 318 318 317 317 316 314 313 312 310 308 305 303 301 301 301 299 298
Height
3109 3109 3109 3109 3108 3108 3107 3107 3106 3104 3103 3101 3098 3096 3095 3092 3088 3088 3088 3086 3085 3082 3079 3080 3079 3077 3077 3074 3070 3067 3064 3063 3061 3059 3057 3055 3053 3052 3051 3050 3048 3046 3044 3042 3041 3039 3038 3037 3036 3036 3035 3034 3034 3034 3033 3033 3033 3033 3033 3033 3034 3035 3035 3036 3038 3039 3040 3040 3040 3041 3041 3041 3042 3044 3046 3047 3048 3050 3051 3051 3051 3052 3052 3052 3053 3053
3110 3110 3109 3109 3108 3108 3107 3106 3104 3103 3102 3100 3098 3095 3092 3091 3088 3086 3087 3085 3085 3081 3077 3077 3075 3072 3073 3069 3065 3063 3060 3058 3056 3054 3052 3050 3049 3048 3047 3045 3044 3042 3041 3039 3037 3036 3035 3034 3033 3032 3031 3031 3030 3030 3029 3029 3029 3028 3028 3028 3029 3029 3031 3032 3033 3034 3036 3036 3037 3037 3037 3037 3038 3040 3041 3043 3044 3046 3047 3047 3047 3048 3048 3049 3049 3049
3110 3110 3110 3109 3108 3107 3106 3104 3103 3101 3100 3099 3097 3095 3092 3091 3087 3084 3085 3084 3084 3079 3072 3072 3070 3066 3065 3063 3060 3058 3056 3053 3051 3049 3048 3046 3045 3044 3043 3042 3040 3039 3037 3036 3035 3033 3032 3031 3030 3030 3029 3028 3027 3026 3026 3025 3025 3024 3024 3024 3024 3024 3026 3027 3029 3030 3031 3032 3032 3032 3032 3033 3034 3035 3036 3037 3038 3039 3040 3041 3042 3043 3044 3044 3045 3046
3110 3110 3109 3109 3108 3106 3104 3103 3101 3100 3099 3098 3097 3095 3092 3090 3088 3082 3080 3079 3079 3076 3070 3068 3064 3060 3059 3058 3056 3054 3051 3049 3046 3045 3043 3042 3040 3040 3039 3038 3037 3036 3034 3033 3032 3031 3030 3029 3028 3027 3026 3026 3025 3024 3023 3022 3021 3021 3020 3020 3019 3020 3021 3022 3024 3025 3026 3027 3028 3028 3027 3028 3029 3029 3029 3031 3032 3032 3033 3035 3036 3038 3039 3040 3040 3041
3110 3110 3109 3108 3107 3105 3103 3101 3099 3097 3096 3097 3097 3095 3091 3089 3088 3083 3079 3076 3072 3069 3067 3064 3058 3053 3054 3054 3051 3049 3047 3044 3042 3041 3039 3038 3037 3037 3036 3035 3034 3033 3032 3031 3030 3029 3028 3027 3026 3025 3024 3024 3023 3022 3021 3020 3019 3018 3018 3017 3016 3016 3016 3017 3019 3020 3021 3022 3023 3024 3024 3025 3025 3025 3024 3025 3026 3027 3027 3028 3030 3031 3033 3035 3035 3036
3110 3109 3108 3107 3106 3104 3103 3100 3099 3098 3095 3094 3094 3093 3091 3087 3084 3081 3078 3075 3069 3063 3062 3063 3056 3049 3050 3052 3046 3044 3044 3041 3039 3037 3036 3035 3034 3034 3033 3032 3031 3030 3029 3029 3028 3027 3026 3025 3024 3023 3023 3022 3021 3020 3019 3018 3017 3017 3016 3015 3014 3014 3013 3013 3013 3014 3015 3016 3018 3019 3020 3021 3021 3021 3020 3019 3020 3022 3022 3023 3024 3026 3028 3029 3030 3031
3109 3108 3107 3106 3105 3104 3103 3101 3100 3099 3095 3093 3091 3090 3087 3084 3081 3077 3075 3074 3069 3063 3059 3061 3058 3048 3046 3049 3045 3041 3040 3037 3035 3034 3033 3033 3032 3031 3030 3029 3028 3028 3027 3027 3026 3025 3024 3023 3023 3022 3021 3020 3019 3018 3017 3016 3016 3015 3014 3013 3013 3012 3011 3011 3010 3010 3010 3011 3012 3014 3016 3016 3016 3016 3015 3014 3014 3016 3018 3018 3019 3020 3022 3023 3024 3026
3108 3107 3106 3105 3105 3104 3103 3102 3101 3099 3096 3092 3090 3087 3083 3080 3077 3074 3072 3070 3065 3061 3055 3053 3055 3048 3043 3044 3042 3039 3037 3034 3033 3031 3031 3031 3030 3029 3028 3027 3027 3026 3026 3025 3024 3023 3022 3022 3021 3020 3019 3017 3017 3016 3015 3015 3014 3013 3012 3011 3011 3010 3010 3009 3008 3008 3007 3007 3007 3009 3010 3010 3010 3010 3009 3009 3010 3012 3012 3013 3013 3014 3016 3017 3019 3020
3107 3106 3105 3105 3105 3104 3103 3103 3101 3098 3095 3090 3087 3084 3080 3077 3074 3070 3068 3064 3061 3059 3050 3045 3050 3047 3041 3041 3041 3038 3036 3034 3032 3030 3030 3030 3029 3028 3027 3026 3026 3025 3024 3023 3023 3022 3021 3020 3019 3018 3017 3016 3015 3014 3013 3013 3012 3011 3010 3009 3009 3008 3007 3007 3006 3006 3005 3005 3004 3004 3005 3005 3005 3004 3004 3005 3005 3007 3007 3007 3007 3008 3010 3012 3013 3014
3106 3105 3105 3106 3105 3104 3103 3102 3100 3097 3093 3088 3084 3081 3077 3074 3071 3068 3065 3060 3058 3057 3047 3042 3047 3046 3042 3043 3042 3040 3038 3035 3033 3030 3030 3030 3029 3028 3026 3025 3025 3024 3023 3022 3021 3021 3020 3019 3018 3017 3016 3015 3014 3013 3012 3011 3011 3010 3009 3008 3007 3006 3006 3005 3004 3004 3003 3002 3002 3001 3001 3001 3000 3000 3000 3000 3000 3001 3001 3002 3002 3003 3004 3005 3007 3008
3106 3106 3106 3106 3105 3104 3102 3099 3097 3094 3090 3085 3081 3077 3073 3069 3067 3065 3061 3057 3055 3052 3045 3044 3047 3045 3044 3045 3043 3042 3040 3037 3035 3033 3032 3031 3029 3028 3026 3025 3024 3023 3022 3021 3020 3019 3019 3018 3017 3016 3015 3014 3013 3013 3012 3011 3010 3009 3008 3007 3005 3004 3004 3003 3002 3001 3000 3000 2999 2999 2998 2998 2997 2996 2996 2995 2994 2994 2994 2996 2997 2998 2997 2998 3000 3002
3106 3106 3106 3105 3104 3102 3099 3094 3092 3091 3087 3083 3079 3075 3070 3064 3062 3059 3056 3055 3054 3049 3045 3046 3046 3043 3044 3047 3045 3043 3041 3039 3036 3034 3033 3031 3029 3028 3026 3025 3025 3023 3022 3021 3020 3019 3018 3017 3016 3015 3014 3012 3011 3010 3009 3008 3008 3007 3007 3006 3004 3003 3001 3000 2999 2998 2997 2997 2996 2996 2995 2994 2994 2993 2992 2992 2991 2990 2990 2990 2990 2991 2991 2991 2993 2994
3105 3105 3105 3104 3103 3100 3095 3089 3085 3083 3082 3081 3077 3074 3069 3063 3060 3058 3055 3054 3052 3047 3046 3046 3044 3042 3044 3047 3046 3044 3041 3039 3036 3034 3033 3031 3030 3029 3028 3027 3026 3025 3024 3022 3021 3019 3017 3016 3014 3012 3011 3009 3008 3006 3005 3004 3002 3002 3001 3002 3002 3002 3000 2998 2996 2995 2994 2993 2992 2991 2991 2990 2990 2989 2989 2988 2988 2987 2986 2985 2984 2984 2985 2986 2987 2988
3100 3101 3102 3101 3100 3098 3094 3089 3084 3079 3078 3079 3077 3075 3072 3069 3067 3062 3057 3054 3049 3045 3045 3044 3043 3044 3045 3046 3045 3043 3041 3039 3037 3035 3034 3032 3031 3030 3029 3028 3026 3025 3023 3021 3019 3017 3014 3012 3010 3008 3006 3005 3003 3002 3000 2999 2998 2997 2995 2995 2995 2996 2997 2997 2995 2993 2991 2989 2987 2986 2986 2985 2985 2984 2984 2983 2983 2982 2982 2981 2980 2980 2979 2980 2980 2981
3101 3101 3100 3100 3098 3096 3094 3093 3090 3085 3082 3082 3081 3080 3079 3077 3076 3069 3061 3056 3051 3046 3043 3041 3043 3046 3047 3046 3044 3043 3042 3040 3039 3037 3036 3034 3032 3030 3028 3027 3025 3022 3020 3017 3015 3012 3010 3008 3005 3003 3001 2999 2998 2996 2995 2994 2993 2992 2991 2990 2989 2988 2988 2989 2990 2991 2990 2987 2984 2982 2981 2980 2979 2979 2978 2977 2977 2977 2977 2976 2976 2975 2975 2974 2974 2974
3104 3103 3103 3101 3100 3097 3093 3093 3092 3087 3083 3083 3081 3080 3079 3080 3078 3072 3065 3061 3055 3050 3045 3044 3047 3049 3046 3044 3043 3042 3040 3040 3039 3037 3036 3034 3031 3029 3026 3024 3021 3018 3016 3014 3011 3009 3007 3004 3001 2999 2996 2994 2993 2991 2990 2989 2987 2986 2985 2984 2984 2983 2982 2980 2980 2981 2983 2984 2983 2980 2978 2976 2975 2974 2973 2972 2971 2971 2971 2970 2970 2970 2969 2969 2968 2968
3103 3101 3101 3100 3098 3097 3094 3092 3090 3086 3084 3082 3080 3079 3079 3078 3076 3070 3064 3060 3057 3054 3049 3048 3050 3049 3047 3045 3042 3039 3037 3037 3037 3035 3034 3032 3029 3027 3025 3021 3019 3016 3014 3012 3009 3007 3004 3001 2998 2995 2992 2990 2988 2987 2985 2984 2982 2980 2978 2977 2976 2976 2976 2975 2974 2972 2972 2974 2976 2977 2976 2973 2971 2969 2968 2967 2966 2965 2965 2964 2964 2963 2963 2963 2962 2962
3106 3100 3099 3099 3095 3094 3093 3090 3089 3087 3085 3082 3079 3078 3076 3073 3073 3071 3066 3060 3058 3055 3051 3049 3050 3048 3047 3045 3041 3038 3036 3035 3034 3032 3030 3029 3026 3024 3022 3019 3016 3014 3011 3009 3007 3003 3000 2996 2993 2990 2988 2987 2986 2984 2982 2980 2978 2976 2973 2971 2969 2967 2967 2967 2967 2966 2965 2963 2964 2966 2968 2968 2967 2965 2964 2962 2961 2960 2959 2958 2958 2957 2956 2956 2956 2955
3109 3102 3098 3098 3095 3092 3090 3088 3084 3083 3083 3083 3081 3078 3074 3071 3069 3069 3068 3064 3060 3056 3051 3050 3049 3047 3044 3042 3039 3037 3035 3033 3032 3030 3028 3026 3023 3021 3018 3016 3013 3011 3008 3006 3003 3000 2996 2993 2990 2987 2985 2984 2983 2981 2979 2977 2975 2972 2970 2967 2964 2962 2960 2959 2959 2959 2958 2957 2955 2955 2956 2957 2959 2959 2959 2958 2956 2955 2954 2953 2952 2951 2950 2949 2949 2948
3109 3105 3099 3097 3095 3091 3088 3085 3082 3079 3079 3080 3078 3075 3074 3073 3071 3069 3069 3068 3064 3059 3054 3050 3047 3043 3041 3040 3038 3036 3034 3032 3029 3027 3025 3023 3020 3018 3016 3013 3011 3008 3005 3002 2998 2995 2992 2990 2988 2986 2983 2981 2979 2977 2976 2974 2972 2969 2966 2964 2961 2958 2956 2954 2953 2952 2951 2950 2949 2948 2947 2947 2947 2948 2950 2950 2950 2950 2949 2948 2946 2945 2943 2942 2942 2942
3107 3106 3100 3094 3092 3090 3086 3085 3084 3081 3078 3076 3074 3073 3073 3073 3072 3070 3069 3068 3066 3062 3057 3051 3044 3040 3040 3038 3035 3034 3031 3029 3026 3023 3022 3020 3018 3016 3013 3011 3008 3005 3001 2998 2994 2991 2989 2986 2984 2981 2979 2976 2974 2973 2972 2970 2968 2966 2963 2960 2958 2955 2952 2950 2949 2947 2946 2944 2942 2941 2941 2940 2939 2938 2939 2940 2941 2941 2942 2942 2940 2939 2938 2936 2936 2935
3103 3103 3100 3093 3089 3088 3087 3087 3087 3084 3081 3078 3076 3074 3073 3071 3070 3068 3067 3066 3065 3062 3057 3052 3044 3039 3038 3036 3034 3032 3029 3027 3025 3022 3019 3017 3015 3013 3010 3007 3004 3000 2997 2993 2990 2987 2984 2981 2978 2975 2973 2971 2969 2968 2967 2965 2964 2962 2959 2957 2954 2951 2948 2946 2944 2943 2941 2939 2937 2935 2934 2933 2932 2931 2930 2930 2930 2931 2932 2933 2932 2932 2932 2931 2930 2929
3103 3102 3099 3094 3090 3089 3088 3086 3086 3084 3081 3079 3076 3074 3072 3071 3069 3068 3066 3063 3061 3058 3054 3052 3045 3038 3036 3035 3032 3030 3028 3026 3024 3021 3018 3015 3012 3009 3005 3002 2999 2995 2992 2989 2986 2984 2980 2977 2974 2971 2969 2967 2965 2963 2961 2960 2958 2956 2953 2951 2949 2946 2944 2941 2939 2937 2935 2934 2932 2930 2928 2926 2925 2924 2923 2922 2921 2921 2922 2923 2923 2923 2923 2923 2923 2922
3103 3101 3098 3093 3088 3085 3084 3083 3083 3082 3078 3075 3073 3072 3071 3069 3068 3067 3065 3061 3057 3054 3052 3051 3044 3036 3034 3033 3031 3029 3027 3025 3022 3019 3015 3012 3008 3005 3001 2997 2994 2991 2988 2986 2983 2980 2976 2973 2970 2968 2965 2963 2961 2958 2956 2954 2952 2949 2946 2944 2942 2940 2939 2936 2934 2932 2929 2927 2926 2924 2923 2920 2919 2917 2915 2915 2914 2913 2912 2912 2913 2913 2913 2913 2914 2915
3102 3100 3097 3092 3086 3081 3078 3077 3076 3074 3073 3072 3071 3070 3069 3067 3066 3064 3062 3059 3056 3052 3051 3050 3042 3032 3031 3031 3029 3027 3024 3021 3019 3016 3012 3009 3004 3001 2997 2993 2990 2987 2984 2982 2978 2975 2971 2968 2965 2963 2960 2958 2956 2953 2951 2948 2946 2944 2941 2939 2937 2935 2933 2931 2929 2927 2924 2921 2919 2917 2916 2915 2913 2912 2910 2908 2907 2906 2904 2903 2902 2903 2904 2903 2903 2904
3101 3099 3097 3095 3093 3089 3084 3080 3077 3074 3072 3072 3071 3069 3067 3065 3063 3060 3058 3056 3053 3050 3048 3046 3038 3029 3028 3028 3026 3024 3020 3016 3014 3011 3008 3005 3001 2997 2993 2990 2987 2984 2980 2977 2973 2969 2966 2963 2961 2958 2956 2953 2951 2948 2945 2943 2941 2938 2936 2934 2932 2930 2927 2925 2923 2921 2919 2916 2913 2911 2910 2908 2906 2905 2904 2903 2901 2899 2898 2896 2894 2893 2893 2894 2894 2894
3099 3098 3096 3096 3096 3094 3089 3085 3082 3078 3074 3071 3069 3066 3064 3062 3060 3058 3055 3052 3050 3048 3043 3040 3035 3028 3024 3023 3022 3019 3016 3012 3009 3006 3003 3000 2997 2993 2990 2987 2983 2980 2977 2972 2968 2964 2961 2958 2956 2953 2951 2948 2945 2943 2940 2937 2935 2933 2930 2928 2926 2924 2922 2919 2917 2915 2913 2911 2908 2906 2903 2901 2900 2898 2897 2896 2895 2893 2891 2890 2888 2885 2884 2883 2883 2884
3097 3095 3094 3093 3091 3089 3086 3082 3079 3077 3073 3070 3066 3063 3061 3059 3057 3055 3052 3049 3048 3046 3038 3034 3033 3027 3021 3020 3018 3015 3012 3009 3005 3002 2998 2995 2992 2988 2986 2983 2979 2975 2971 2967 2963 2960 2957 2954 2951 2948 2946 2942 2939 2937 2935 2932 2930 2927 2925 2922 2920 2918 2916 2914 2911 2909 2906 2904 2902 2899 2897 2895 2892 2891 2890 2888 2887 2886 2884 2883 2881 2878 2876 2874 2873 2874
3095 3093 3091 3088 3086 3084 3082 3079 3076 3074 3070 3067 3064 3060 3057 3056 3054 3051 3049 3045 3044 3042 3035 3030 3029 3024 3019 3018 3015 3012 3009 3005 3001 2998 2994 2991 2988 2984 2981 2977 2973 2969 2965 2961 2958 2955 2952 2949 2946 2943 2940 2937 2934 2931 2928 2926 2923 2921 2919 2916 2914 2912 2910 2907 2904 2902 2900 2897 2895 2892 2889 2887 2884 2882 2881 2879 2878 2877 2876 2874 2873 2871 2869 2866 2864 2863
3093 3092 3089 3085 3081 3079 3078 3075 3073 3071 3067 3063 3060 3057 3054 3052 3051 3048 3045 3041 3039 3037 3033 3029 3025 3019 3017 3015 3011 3008 3006 3002 2998 2994 2991 2987 2984 2979 2976 2972 2967 2964 2960 2957 2954 2950 2947 2944 2941 2938 2934 2930 2927 2924 2921 2919 2917 2914 2912 2910 2908 2905 2902 2900 2897 2894 2892 2889 2887 2884 2881 2878 2876 2873 2871 2869 2868 2867 2866 2864 2863 2862 2860 2858 2856 2855
3091 3089 3087 3083 3078 3075 3073 3071 3069 3067 3063 3059 3056 3054 3052 3050 3048 3046 3042 3038 3035 3032 3029 3027 3020 3013 3012 3011 3007 3003 3001 2998 2994 2991 2986 2983 2979 2974 2971 2967 2962 2959 2955 2953 2950 2946 2943 2939 2935 2931 2928 2924 2921 2918 2915 2912 2909 2907 2905 2903 2900 2897 2895 2892 2889 2886 2883 2880 2877 2875 2872 2869 2866 2864 2861 2860 2858 2857 2855 2854 2853 2852 2850 2849 2848 2847
3089 3087 3084 3081 3075 3071 3069 3067 3063 3061 3059 3056 3054 3052 3050 3047 3044 3041 3039 3036 3032 3028 3024 3021 3016 3010 3007 3005 3001 2998 2997 2993 2990 2986 2982 2978 2974 2970 2966 2962 2958 2954 2951 2948 2945 2942 2937 2933 2929 2925 2922 2918 2915 2912 2909 2906 2902 2900 2897 2895 2892 2889 2886 2883 2880 2877 2874 2870 2867 2865 2862 2859 2857 2854 2852 2850 2848 2847 2845 2844 2843 2842 2841 2840 2839 2838
3087 3084 3082 3079 3073 3068 3066 3065 3061 3057 3054 3051 3051 3049 3046 3044 3040 3037 3035 3033 3031 3028 3022 3016 3012 3007 3004 3001 2996 2993 2991 2988 2985 2982 2977 2973 2970 2966 2962 2958 2954 2951 2947 2944 2940 2936 2932 2927 2924 2921 2917 2913 2910 2906 2903 2900 2896 2893 2890 2886 2883 2880 2877 2874 2871 2868 2865 2862 2859 2856 2853 2851 2848 2846 2844 2842 2840 2838 2836 2835 2834 2833 2832 2831 2830 2829
3085 3082 3080 3079 3073 3066 3064 3062 3058 3055 3052 3049 3048 3046 3043 3040 3037 3033 3029 3028 3027 3025 3020 3014 3009 3005 3002 2998 2994 2990 2987 2984 2981 2977 2974 2970 2965 2961 2957 2954 2951 2947 2944 2940 2935 2931 2927 2922 2919 2915 2912 2908 2905 2901 2898 2894 2890 2886 2883 2879 2876 2873 2870 2866 2863 2860 2857 2854 2851 2848 2846 2843 2840 2838 2836 2834 2832 2830 2829 2827 2826 2825 2824 2823 2822 2821
3082 3080 3078 3076 3072 3066 3062 3060 3056 3053 3050 3047 3044 3043 3040 3038 3035 3030 3025 3024 3023 3019 3015 3010 3005 3002 2999 2995 2992 2988 2983 2980 2976 2973 2970 2966 2962 2957 2953 2950 2947 2943 2938 2934 2930 2926 2922 2918 2913 2909 2906 2903 2899 2895 2892 2888 2884 2880 2876 2873 2869 2866 2863 2860 2856 2853 2850 2847 2844 2842 2839 2836 2833 2831 2829 2827 2826 2824 2822 2820 2819 2818 2817 2815 2815 2814
3080 3078 3075 3073 3070 3065 3062 3062 3059 3051 3046 3043 3041 3039 3038 3035 3033 3027 3019 3016 3017 3015 3009 3005 3002 2999 2996 2992 2988 2983 2977 2972 2969 2967 2966 2962 2957 2954 2950 2946 2942 2938 2933 2929 2924 2920 2916 2913 2909 2904 2900 2897 2894 2890 2886 2882 2878 2873 2870 2867 2863 2860 2857 2854 2850 2847 2844 2841 2838 2835 2833 2830 2827 2825 2823 2821 2819 2817 2816 2814 2813 2811 2810 2809 2808 2807
3078 3076 3074 3071 3068 3065 3061 3060 3056 3047 3041 3039 3037 3036 3036 3032 3029 3026 3015 3008 3010 3011 3006 3001 2998 2994 2991 2987 2982 2977 2972 2965 2961 2960 2960 2957 2952 2949 2945 2941 2937 2933 2928 2924 2920 2916 2912 2908 2904 2900 2896 2892 2888 2884 2880 2875 2871 2867 2864 2861 2858 2854 2851 2848 2845 2841 2838 2835 2833 2830 2827 2825 2822 2819 2817 2815 2813 2811 2810 2808 2807 2805 2804 2802 2801 2800
3076 3074 3073 3070 3066 3064 3060 3056 3053 3047 3040 3037 3035 3033 3033 3029 3027 3025 3015 3004 3004 3006 3002 2998 2994 2988 2984 2980 2975 2971 2966 2959 2953 2953 2953 2950 2947 2943 2939 2935 2931 2927 2922 2918 2914 2910 2906 2902 2898 2895 2891 2887 2883 2879 2874 2869 2865 2862 2858 2855 2852 2849 2846 2843 2839 2836 2833 2830 2828 2825 2823 2820 2817 2814 2812 2810 2808 2806 2804 2802 2800 2799 2797 2795 2794 2794
3074 3071 3070 3067 3063 3061 3059 3056 3053 3047 3039 3035 3034 3031 3029 3026 3023 3021 3012 3001 2998 3000 2997 2993 2989 2984 2979 2975 2970 2967 2962 2954 2947 2946 2947 2944 2941 2938 2933 2928 2925 2921 2916 2913 2908 2904 2900 2896 2892 2889 2885 2881 2877 2873 2869 2864 2860 2857 2853 2850 2846 2843 2840 2837 2834 2831 2828 2825 2823 2821 2818 2815 2813 2810 2808 2806 2804 2802 2799 2797 2795 2793 2792 2790 2789 2788
3071 3068 3065 3063 3060 3058 3056 3052 3048 3043 3036 3033 3032 3029 3026 3023 3020 3017 3010 3000 2996 2995 2992 2988 2984 2979 2975 2971 2966 2963 2960 2953 2945 2941 2941 2938 2935 2932 2928 2923 2919 2915 2910 2907 2903 2899 2894 2890 2886 2883 2879 2876 2872 2868 2863 2859 2855 2852 2848 2845 2841 2838 2835 2832 2830 2827 2824 2821 2819 2816 2814 2811 2809 2806 2804 2802 2800 2798 2796 2794 2792 2790 2788 2787 2786 2785
3068 3065 3062 3059 3056 3054 3053 3049 3043 3037 3033 3031 3028 3025 3022 3019 3016 3013 3006 2998 2993 2990 2987 2984 2979 2974 2970 2966 2962 2958 2955 2951 2944 2939 2936 2933 2929 2925 2923 2918 2914 2910 2905 2901 2897 2893 2889 2885 2881 2878 2874 2871 2867 2863 2858 2854 2850 2847 2844 2840 2837 2833 2830 2827 2825 2823 2820 2818 2815 2812 2810 2808 2805 2803 2801 2799 2796 2795 2793 2791 2789 2787 2785 2784 2783 2782
3065 3062 3059 3056 3054 3051 3049 3046 3039 3033 3030 3028 3025 3021 3019 3015 3011 3006 2999 2994 2990 2985 2981 2978 2974 2969 2965 2961 2958 2953 2948 2945 2941 2936 2932 2928 2924 2919 2916 2912 2908 2904 2900 2896 2892 2888 2884 2880 2876 2873 2870 2866 2862 2858 2854 2849 2845 2842 2839 2836 2833 2829 2826 2823 2820 2818 2816 2814 2811 2808 2806 2804 2802 2800 2797 2796 2793 2792 2790 2788 2786 2784 2782 2781 2780 2779
3063 3060 3057 3054 3052 3048 3045 3043 3038 3031 3027 3025 3021 3017 3014 3011 3006 2999 2993 2989 2986 2982 2976 2972 2968 2965 2961 2956 2952 2948 2943 2939 2936 2932 2927 2924 2919 2915 2911 2906 2902 2898 2894 2890 2886 2883 2879 2874 2871 2868 2865 2861 2857 2853 2850 2845 2841 2838 2835 2832 2828 2825 2822 2819 2816 2814 2812 2810 2807 2805 2803 2801 2799 2796 2794 2792 2790 2788 2787 2785 2783 2781 2780 2778 2777 2777
3060 3058 3055 3052 3050 3047 3043 3039 3034 3029 3025 3022 3017 3013 3009 3005 3000 2996 2989 2984 2981 2977 2972 2967 2963 2961 2957 2951 2946 2943 2939 2934 2931 2927 2922 2918 2915 2910 2906 2902 2897 2893 2888 2885 2881 2877 2873 2869 2866 2863 2860 2857 2853 2849 2845 2841 2837 2833 2830 2827 2824 2821 2818 2816 2813 2810 2808 2806 2804 2801 2799 2797 2795 2793 2791 2789 2787 2785 2784 2782 2780 2779 2777 2776 2775 2774
3056 3054 3052 3049 3046 3044 3038 3032 3027 3023 3020 3017 3013 3008 3004 3000 2996 2992 2987 2980 2975 2972 2968 2963 2959 2956 2953 2948 2942 2937 2934 2929 2925 2921 2917 2913 2909 2906 2902 2898 2893 2888 2883 2880 2876 2872 2868 2864 2860 2857 2855 2852 2849 2845 2842 2838 2833 2830 2826 2823 2820 2817 2815 2812 2809 2807 2804 2802 2800 2798 2796 2794 2792 2789 2787 2785 2784 2782 2781 2779 2778 2776 2774 2773 2772 2771
3052 3050 3047 3043 3041 3037 3031 3026 3023 3018 3015 3012 3008 3003 2999 2995 2991 2987 2982 2976 2972 2968 2964 2960 2955 2951 2947 2943 2937 2932 2928 2924 2919 2915 2912 2908 2904 2901 2897 2893 2888 2884 2879 2875 2871 2867 2863 2859 2855 2852 2849 2847 2844 2840 2837 2834 2830 2826 2823 2820 2817 2814 2811 2809 2806 2804 2801 2799 2797 2794 2792 2790 2789 2786 2784 2782 2781 2779 2778 2776 2775 2774 2772 2771 2769 2768
3049 3046 3042 3039 3036 3031 3024 3021 3018 3013 3010 3008 3004 2999 2996 2991 2987 2982 2977 2972 2968 2964 2960 2956 2951 2947 2943 2938 2933 2927 2923 2919 2914 2910 2907 2903 2899 2896 2892 2887 2883 2879 2874 2870 2866 2862 2857 2853 2850 2846 2843 2841 2838 2835 2832 2830 2827 2823 2820 2816 2813 2810 2808 2805 2803 2800 2798 2796 2793 2791 2789 2787 2785 2783 2782 2780 2778 2776 2775 2773 2772 2771 2769 2768 2767 2766
3045 3042 3039 3035 3031 3026 3019 3016 3013 3008 3004 3003 3000 2995 2991 2987 2982 2978 2973 2968 2964 2960 2955 2951 2946 2942 2938 2934 2929 2923 2918 2915 2911 2905 2901 2898 2894 2890 2886 2882 2877 2873 2869 2865 2861 2857 2853 2849 2845 2841 2838 2835 2833 2830 2827 2825 2822 2819 2816 2813 2810 2807 2804 2802 2799 2797 2795 2792 2790 2788 2786 2784 2782 2780 2778 2777 2775 2773 2772 2770 2769 2768 2767 2766 2765 2764
3042 3039 3036 3031 3026 3021 3016 3013 3009 3003 2999 2998 2995 2989 2985 2981 2976 2972 2968 2964 2960 2956 2951 2947 2942 2938 2933 2929 2925 2919 2914 2910 2906 2901 2897 2893 2890 2885 2880 2876 2871 2867 2864 2860 2856 2852 2848 2844 2840 2836 2833 2830 2827 2825 2822 2820 2817 2815 2812 2809 2807 2804 2801 2798 2796 2794 2792 2789 2787 2785 2783 2781 2779 2777 2775 2774 2773 2771 2769 2768 2766 2765 2764 2763 2762 2762
3038 3035 3032 3027 3021 3016 3013 3010 3005 2998 2994 2992 2990 2985 2981 2977 2972 2967 2964 2960 2956 2952 2947 2942 2938 2934 2929 2924 2920 2915 2909 2905 2901 2897 2893 2889 2885 2880 2875 2870 2866 2862 2858 2854 2850 2847 2843 2839 2836 2832 2829 2826 2823 2820 2817 2815 2813 2810 2807 2805 2803 2800 2797 2794 2792 2790 2788 2786 2784 2782 2780 2778 2776 2774 2772 2771 2770 2769 2768 2766 2764 2762 2761 2761 2760 2759
3034 3031 3028 3024 3017 3012 3009 3006 3001 2995 2990 2988 2985 2982 2978 2974 2968 2963 2959 2956 2952 2948 2943 2938 2933 2930 2926 2921 2916 2911 2905 2901 2897 2893 2889 2885 2880 2875 2870 2865 2861 2856 2852 2848 2844 2841 2838 2835 2831 2827 2824 2821 2818 2815 2813 2810 2808 2805 2803 2801 2799 2796 2794 2791 2788 2787 2785 2783 2781 2779 2777 2775 2773 2772 2770 2768 2767 2765 2765 2764 2762 2760 2758 2757 2757 2757